Location: Unspecified
(0.0000°N, 0.0000°E)
Time: 00:28:48
(UTC+01:00)

Orbus 21S - Visible Passes

Search period start: 20 January 2017 00:00
Search period end: 30 January 2017 00:00
Orbit: 259 x 33122 km, 24.0° (Epoch: 18 January)

Date Brightness Start Highest point End Pass type
(mag) Time Alt. Az. Time Alt. Az. Time Alt. Az.
20 Jan 6.6 02:50:58 76° ENE 02:50:58 76° ENE 11:37:44 10° E visible
22 Jan 6.6 03:17:39 83° NNW 03:17:39 83° NNW 12:07:20 10° E visible
24 Jan 6.7 03:44:15 71° WNW 03:48:07 75° NNW 12:36:04 10° E visible
26 Jan 6.9 04:10:44 59° WNW 04:20:54 70° NNW 13:04:07 10° ESE visible
28 Jan 7.1 04:37:07 48° WNW 04:57:12 65° NNW 13:31:39 10° ESE visible
29 Jan 11.1 04:39:58 10° ENE 06:44:11 17° ENE 07:52:11 10° ENE visible
